Location: Jackson
(42.2460°N, 84.4010°W)
Time: 18:02:05
(UTC-04:00)

Courier 1B Rocket - Pass Details

Date: 10 February 2026
Orbit: 920 x 1201 km, 28.2° (Epoch: 12 March)

Event Time Altitude Azimuth Distance (km) Brightness Sun altitude
Rises 03:14:39 0° 256° (WSW) 3,951 - -48.5°
Reaches altitude 10° 03:18:17 10° 239° (WSW) 3,036 - -47.9°
Maximum altitude 03:23:16 19° 198° (SSW) 2,465 - -47.1°
Drops below altitude 10° 03:28:23 10° 156° (SSE) 3,113 - -46.3°
Exits shadow 03:31:38 - 142° (SE) 3,931 8.3 -45.7°
Sets 03:32:11 0° 140° (SE) 4,086 8.4 -45.6°
